Location: Newark
(37.8333°N, 119.5000°W)
Time: 22:52:21
(UTC+00:00)

S-56A Canister/Altair - Visible Passes

Search period start: 24 August 2019 00:00
Search period end: 03 September 2019 00:00
Orbit: 633 x 2499 km, 38.9° (Epoch: 23 August)

Date Brightness Start Highest point End Pass type
(mag) Time Alt. Az. Time Alt. Az. Time Alt. Az.
24 Aug 8.2 03:21:48 10° SW 03:26:54 32° SSE 03:30:40 12° E visible
24 Aug 8.6 05:25:33 10° WSW 05:28:07 30° WSW 05:28:07 30° WSW visible
25 Aug 7.2 04:52:46 10° WSW 04:57:27 74° SW 04:57:27 74° SW visible
26 Aug 7.1 04:19:54 10° WSW 04:25:19 76° SSE 04:26:42 45° E visible
27 Aug 7.4 03:46:57 10° WSW 03:52:47 70° SSE 03:55:52 21° E visible
27 Aug 9.4 05:51:42 10° W 05:53:18 20° W 05:53:18 20° W visible
28 Aug 7.6 03:13:55 10° WSW 03:20:13 64° SSE 03:24:54 10° E visible
28 Aug 8.2 05:18:55 10° W 05:22:25 43° WNW 05:22:25 43° WNW visible
29 Aug 7.2 04:46:01 10° W 04:51:24 79° N 04:51:30 78° NNE visible
30 Aug 7.4 04:13:01 10° W 04:18:50 81° N 04:20:33 40° ENE visible
30 Aug 10.1 06:17:50 10° W 06:17:58 11° W 06:17:58 11° W visible
31 Aug 7.5 03:39:55 10° W 03:46:15 84° N 03:49:34 20° E visible
31 Aug 9.4 05:45:04 10° W 05:47:00 22° W 05:47:00 22° W visible
01 Sep 7.7 03:06:42 10° W 03:13:38 88° N 03:18:33 10° E visible
01 Sep 8.2 05:12:12 10° W 05:16:00 45° W 05:16:00 45° W visible
02 Sep 7.2 04:39:15 10° W 04:44:57 86° N 04:44:59 86° NNE visible
